Tracking 25195 objects as of 20-Jan-2022
HD Live streaming from Space Station
objects crossing your sky now

STARLINK-2185

Track STARLINK-2185 now!
10-day predictions
STARLINK-2185 is classified as:


NORAD ID: 47767
Int'l Code: 2021-017AX
Perigee: 553.5 km
Apogee: 555.3 km
Inclination: 53.1 °
Period: 95.6 minutes
Semi major axis: 6925 km
RCS: Unknown
Launch date: March 4, 2021
Source: United States (US)
Launch site: AIR FORCE EASTERN TEST RANGE (AFETR)
aabbcc
Your satellite tracking list
Your tracking list is empty




NASA's NSSDC Master Catalog

Two Line Element Set (TLE):
1 47767U 21017AX  22019.64149798  .00001448  00000-0  11609-3 0  9991
2 47767  53.0554 150.4951 0001317  79.6691 280.4446 15.06394979 50185
Source of the keplerian elements: AFSPC